EDXW Weather Reports


time (UTC)temp
C
wind
direction
speed
KPH
gust
KPH
rain 1hr
cm
rain 24hr
cm
rain mn
cm
humidity
%
barometer
mb
20260502161002 15 280 11.3 0.0 0.00 0.00 0.00 85 1014.0
20260502151001 13 260 16.1 0.0 0.00 0.00 0.00 80 1015.0
20260502121002 17 190 19.3 0.0 0.00 0.00 0.00 55 1016.0
20260502111001 16 190 19.3 0.0 0.00 0.00 0.00 65 1016.0
20260502101333 15 200 20.9 0.0 0.00 0.00 0.00 60 1017.0
20260502091002 16 200 19.3 0.0 0.00 0.00 0.00 55 1017.0
20260502071002 15 200 22.5 0.0 0.00 0.00 0.00 60 1017.0
20260502061001 15 200 20.9 0.0 0.00 0.00 0.00 70 1017.0
20260502051001 12 200 14.5 0.0 0.00 0.00 0.00 80 1017.0
20260502041001 11 190 12.9 0.0 0.00 0.00 0.00 80 1018.0
20260502031002 12 180 16.1 0.0 0.00 0.00 0.00 80 1018.0
20260502021002 12 180 14.5 0.0 0.00 0.00 0.00 80 1019.0
20260502011002 11 170 11.3 0.0 0.00 0.00 0.00 80 1020.0
20260501231001 11 150 12.9 0.0 0.00 0.00 0.00 85 1021.0
20260501221001 12 150 14.5 0.0 0.00 0.00 0.00 75 1021.0
20260501211001 12 190 9.7 0.0 0.00 0.00 0.00 80 1022.0
20260501201001 15 130 11.3 0.0 0.00 0.00 0.00 65 1022.0
20260501191001 15 130 9.7 0.0 0.00 0.00 0.00 60 1022.0
20260501181001 17 110 9.7 0.0 0.00 0.00 0.00 55 1023.0
20260501171001 18 160 8.0 0.0 0.00 0.00 0.00 40 1024.0